Regional Weather Roundup
Issued by NWS

Home | Current Version | Previous Version | Text Only | Print | Product List | Glossary Off
Versions: 1 2 3 4 5 6 7 8 9 10 11 12 13 14 15 16 17 18 19 20 21 22 23 24 25 26 27 28 29 30 31 32 33 34 35 36 37 38 39 40 41 42 43 44 45 46 47 48 49 50

000
ASUS43 KLOT 291512
RWRIL

ILLINOIS REGIONAL WEATHER ROUNDUP
NATIONAL WEATHER SERVICE CHICAGO/ROMEOVILLE IL
1000 AM CDT THU SEP 29 2016

NOTE: "FAIR" INDICATES FEW OR NO CLOUDS BELOW 12,000 FEET WITH NO
SIGNIFICANT WEATHER AND/OR OBSTRUCTIONS TO VISIBILITY.

* THESE STATIONS ARE NOT UNDER NWS QUALITY CONTROL. THEY ALSO MAY NOT
  REPORT WEATHER SUCH AS PRECIPITATION OR FOG.

ILZ001-002-007-009-015-016-024-291600-
NORTHWEST ILLINOIS

CITY           SKY/WX    TMP DP  RH WIND       PRES   REMARKS
MOLINE         CLOUDY    60  51  72 N10       30.27R
STERLING*      CLOUDY    60  53  77 N12       30.25R
SAVANNA*       MOSUNNY   58  52  78 N17G24    30.28R
$$

ILZ003-004-008-010-011-017-018-291600-
NORTH CENTRAL ILLINOIS

CITY           SKY/WX    TMP DP  RH WIND       PRES   REMARKS
ROCKFORD       PTSUNNY   62  54  74 N17       30.26R
FREEPORT*      CLOUDY    58  52  80 N16       30.29R
ROCHELLE*      CLOUDY    61  55  79 N18G25    30.23R
DE KALB*       CLOUDY    62  56  79 N16G24    30.21S
$$

ILZ005-006-012>014-019>023-291600-
NORTHEAST ILLINOIS

CITY           SKY/WX    TMP DP  RH WIND       PRES   REMARKS
CHICAGO-OHARE  CLOUDY    63  57  81 N20G30    30.16R
CHICAGO-MIDWAY LGT RAIN  64  58  80 NE17G25   30.15R
AURORA         PTSUNNY   67  56  67 N18G36    30.18R
LANSING*       LGT RAIN  61  60  97 NE16G22   30.14R
JOLIET*        CLOUDY    64  59  84 N15       30.14S
WAUKEGAN       CLOUDY    62  57  83 N18G26    30.19R
DUPAGE AIRPORT CLOUDY    64  56  75 N17       30.17R
KANKAKEE*      LGT RAIN  60  58  94 NE10      30.14R
WHEELING       CLOUDY    63  57  81 N15       30.19R
MORRIS*        CLOUDY    63  56  79 N8        30.14R
ROMEOVILLE*    CLOUDY    62  60  94 N13G21    30.14R
NORTHERLY ISL    N/A     62  57  83 NE15        N/A
$$

LMZ740>746-291600-
SOUTHERN LAKE MICHIGAN

STATION/POSITION SKY/WX   TEMP    WIND        PRES    VSBY  WAVE
                          AIR SEA DIR/SP/G                  HT/PER
                          (F)     (DEG/KT/KT) (MB)    (MI)  (FT/S)
SOUTHERN BUOY              64 69   50/ 23/ 27 1021.4R         7/ 8
WILMETTE HARBOR            62 55   70/ 19/ 23   N/A           9/ 7
HARRISON CRIB              64      40/ 25/ 29   N/A
BURNHAM HARBOR             61      20/ 17/ 19   N/A
CALUMET HARBOR             62      40/ 19/ 23 1020.3R
BURNS HARBOR               62      50/ 21     1020.7
MICHIGAN CITY              60      20/ 19/ 20   N/A
MICHIGAN CITY 6N           61 65   40/ 17/ 21   N/A           8/ 7
ST. JOSEPH                 60 64   20/ 14/ 17 1020.4          5/ 7
$$

ILZ025>027-034>036-040-047-049-050-058-095>099-291600-
WEST-CENTRAL ILLINOIS

CITY           SKY/WX    TMP DP  RH WIND       PRES   REMARKS
QUINCY         CLOUDY    56  51  84 N16       30.26R
GALESBURG*     CLOUDY    57  52  82 N16       30.25R
MACOMB*        CLOUDY    57  52  82 N17       30.27S
JACKSONVILLE*  PTSUNNY   62  53  74 N17G25    30.20R
PITTSFIELD*    CLOUDY    57  53  85 N9G18     30.25R
$$

ILZ028>032-037-038-041>044-048-051>054-059>061-291600-
CENTRAL ILLINOIS

CITY           SKY/WX    TMP DP  RH WIND       PRES   REMARKS
PONTIAC        CLOUDY    62  60  92 N17G25    30.14S
BLOOMINGTON    CLOUDY    59  56  89 N13G22    30.15S
DECATUR        CLOUDY    63  54  72 N13       30.14R
PEORIA         PTSUNNY   64  55  72 N13G23    30.18R
LACON*         CLOUDY    63  53  71 N12G17    30.19R
LINCOLN*       CLOUDY    60  58  95 N8        30.17S
SPRINGFIELD    CLOUDY    60  57  89 N12       30.17F
TAYLORVILLE    CLOUDY    61  55  80 N17G26    30.15R
$$

ILZ033-039-045-046-055>057-062-063-291600-
EAST-CENTRAL ILLINOIS

CITY           SKY/WX    TMP DP  RH WIND       PRES   REMARKS
CHAMPAIGN      CLOUDY    61  55  81 N9        30.12R
RANTOUL*       CLOUDY    61  57  87 N9        30.13R
MATTOON        PTSUNNY   60  54  80 NE13      30.11R
PARIS*         PTSUNNY   60  55  84 CALM      30.11R
$$

ILZ079-100>102-291600-
SOUTHWEST ILLINOIS

CITY           SKY/WX    TMP DP  RH WIND       PRES   REMARKS
ALTON          CLOUDY    57  52  82 NW8G16    30.18R
BELLEVILLE     MOSUNNY   59  54  84 NW8       30.15R
CAHOKIA*       CLOUDY    59  52  77 NW15G21   30.18R
SPARTA*        CLOUDY    57  52  84 NW9G22    30.16R
$$

ILZ064>066-069>071-074>076-080>082-084>086-088>090-092>094-291600-
SOUTH-CENTRAL ILLINOIS

CITY           SKY/WX    TMP DP  RH WIND       PRES   REMARKS
CARBONDALE     CLOUDY    58  54  86 NW13      30.13R
CAIRO*         CLOUDY    58  52  82 NW9       30.14R
EFFINGHAM*     CLOUDY    61  59  93 N6        30.12R
MARION         CLOUDY    59  55  88 NW15      30.13R
MT. VERNON     CLOUDY    57  50  77 N3        30.12R
CENTRALIA*     CLOUDY    61  56  82 N16       30.10S
SALEM*         DRIZZLE   59  55  84 N9        30.11R
METROPOLIS*    CLOUDY    58  53  84 NW9G18    30.12R
$$

ILZ067-068-072-073-078-083-087-091-291600-
SOUTHEAST ILLINOIS

CITY           SKY/WX    TMP DP  RH WIND       PRES   REMARKS
LAWRENCEVILLE  CLOUDY    59  55  87 NE12      30.09R
FLORA*         PTSUNNY   62  56  79 N9        30.10R
FAIRFIELD*     CLOUDY    60  55  83 N5        30.09R
HARRISBURG*    CLOUDY    58  54  87 NW9       30.11R
ROBINSON*      CLOUDY    59  55  86 NE9       30.10R
CARMI*         CLOUDY    59  55  87 NW12      30.09R
$$

ABBREVIATIONS USED IN REMARKS
   TC - TEMPERATURE IN CELSIUS
  WCI - WIND CHILL INDEX
   HX - HEAT INDEX
  VSB - VISIBILITY
$$




USA.gov is the U.S. government's official web portal to all federal, state and local government web resources and services.